カタログに戻る

TITAN 3C TRANSTAGE DEB

LostHEO
NORAD 29013·DEBRIS·🇺🇸 United States

打ち上げ Dec 21, 1965 から Cape Canaveral Space Force Station

Loading…

次のパス (今後24時間)

TLE

古いSource: Space-Track

元期: Jan 19, 2026, 05:05 UTC

1 29013U 65108CV  26019.21182183 -.00000194  00000-0 -72613-3 0  9997
2 29013  26.6737   4.2721 6781376 154.7185 352.9266  2.69137804126331

AllMySatでTITAN 3C TRANSTAGE DEBをリアルタイム追跡

Download on the App Store